Location: Pianadetto
(44.4000°N, 10.1000°E)
Time: 20:50:51
(UTC+00:00)

Cosmos 1371 Rocket - Pass Details

Date: 26 May 2022
Orbit: 753 x 790 km, 74.0° (Epoch: 02 July)

Event Time Altitude Azimuth Distance (km) Brightness Sun altitude
Exits shadow 02:49:00 - 195° (SSW) 2,675 6.3 -8.5°
Reaches altitude 10° 02:50:02 10° 195° (SSW) 2,270 6.0 -8.4°
Maximum altitude 02:55:10 81° 109° (ESE) 769 4.1 -7.7°
Drops below altitude 10° 03:00:21 10° 23° (NNE) 2,290 7.6 -7.0°
Sets 03:02:44 0° 22° (NNE) 3,222 8.4 -6.6°
